Overview Statistics Trail Chart Weather Telemetry Raw packets
 

This is the latest recevied weather packets stored in our database for station/object W6TKD-13. If no packets are shown the sender has not sent any weather packets the latest 10 day(s).

<< 8 9 10 11 12 13 14 >>
Time Temp. Humidity Pressure Rain* Wind** Luminosity Snow
1788033316 31.67° C 21% 1014.9 hPa 0 mm - - -
1788032649 31.11° C 21% 1015.2 hPa 0 mm - - -
1788031982 31.11° C 21% 1015.2 hPa 0 mm - - -
1788031316 31.11° C 21% 1015.4 hPa 0 mm - - -
1788030648 31.11° C 21% 1015.4 hPa 0 mm - - -
1788029984 31.67° C 21% 1015.6 hPa 0 mm - - -
1788029316 32.22° C 20% 1015.6 hPa 0 mm - - -
1788028648 33.33° C 20% 1015.6 hPa 0 mm - - -
1788027988 35° C 19% 1015.6 hPa 0 mm - - -
1788027314 36.67° C 18% 1015.5 hPa 0 mm - - -
1788026646 38.89° C 18% 1015.6 hPa 0 mm - - -
1788025980 40.56° C 18% 1015.4 hPa 0 mm - - -
1788025313 41.67° C 18% 1015.4 hPa 0 mm - - -
1788024646 41.67° C 18% 1015.4 hPa 0 mm - - -
1788023978 41.11° C 19% 1015.3 hPa 0 mm - - -
1788022646 39.44° C 22% 1015.1 hPa 0 mm - - -
1788021978 37.78° C 26% 1015.2 hPa 0 mm - - -
1788021312 35° C 30% 1015.1 hPa 0 mm - - -
1788020643 31.67° C 36% 1015.3 hPa 0 mm - - -
1788019981 26.67° C 42% 1015.3 hPa 0 mm - - -
1788019313 23.33° C 45% 1015.5 hPa 0 mm - - -
1788018642 21.11° C 48% 1015.5 hPa 0 mm - - -
1788017975 20° C 48% 1015.5 hPa 0 mm - - -
1788017310 18.89° C 49% 1015.5 hPa 0 mm - - -
1788016643 18.33° C 50% 1015.5 hPa 0 mm - - -

* Rain since midnight (hover to see other rain measurements)
** Current wind speed in m/s (hover to see current wind gust speed)